Regional Weather Roundup
Issued by NWS Upton, NY

Current Version | Previous Version | Graphics & Text | Print | Product List | Glossary Off
Versions: 1 2 3 4 5 6 7 8 9 10 11 12 13 14 15 16 17 18 19 20 21 22 23 24 25 26 27 28 29 30 31 32 33 34 35 36 37 38 39 40 41 42 43 44 45 46 47 48 49 50

000
ASUS41 KOKX 030618
RWROKX

REGIONAL WEATHER ROUNDUP
NATIONAL WEATHER SERVICE NEW YORK NY
200 AM EDT WED JUN 03 2015

NOTE: "FAIR" INDICATES FEW OR NO CLOUDS BELOW 12,000 FEET WITH NO
SIGNIFICANT WEATHER AND/OR OBSTRUCTIONS TO VISIBILITY.

NYZ071-072-176-178-NJZ106-104-030700-
NEW YORK CITY METRO AREA


CITY           SKY/WX    TMP DP  RH WIND       PRES   REMARKS
CENTRAL PARK   CLOUDY    53  50  89 VRB6      30.20F
LAGUARDIA APRT CLOUDY    54  49  83 E6        30.18S
KENNEDY INTL   LGT RAIN  54  50  87 NE8       30.18F
NEWARK/LIBERTY CLOUDY    55  51  86 NE8       30.17F
BRNX BOT. GARD   N/A     52  50  93 NE7       30.19S
TETERBORO      CLOUDY    54  49  83 NE5       30.17F
$$

NYZ177-179-078>081-030700-
LONG ISLAND NEW YORK

CITY           SKY/WX    TMP DP  RH WIND       PRES   REMARKS
FARMINGDALE    CLOUDY    52  49  89 E6        30.19R
ISLIP          CLOUDY    50  48  93 E3        30.17R
SHIRLEY        CLOUDY    50  48  93 NE3       30.19S
WESTHAMPTON    CLOUDY    50  48  93 CALM      30.19F
MONTAUK POINT    N/A     51  46  83 N7        30.19S
$$

NYZ052-065-067-030700-
HUDSON VALLEY

CITY           SKY/WX    TMP DP  RH WIND       PRES   REMARKS
WHITE PLAINS   CLOUDY    52  49  89 CALM      30.18S
NEWBURGH       MOCLDY    50  50 100 CALM      30.19S FOG
MONTGOMERY     HAZE      47  24  40 CALM      30.18R VSB 1/4
POUGHKEEPSIE   CLOUDY    50  48  93 CALM      30.19R
ALBANY         CLOUDY    53  44  71 N8        30.20S
$$

NJZ001-105-106-008-010-013-015-019>022-104-030700-
NEW JERSEY

CITY           SKY/WX    TMP DP  RH WIND       PRES   REMARKS
NEWARK/LIBERTY CLOUDY    55  51  86 NE8       30.17F
TETERBORO      CLOUDY    54  49  83 NE5       30.17F
CALDWELL       CLOUDY    53  50  89 NE3       30.18F
MORRISTOWN     CLOUDY    55  52  88 CALM      30.17F
SOMERVILLE     CLOUDY    55  51  86 VRB3      30.16S
SUSSEX         MOCLDY    50  48  93 CALM      30.18F FOG
ANDOVER          N/A     53  52  96 CALM      30.18S
TRENTON        CLOUDY    53  51  93 SE3       30.18R
MILLVILLE      CLOUDY    54  53  97 NE8       30.15S
ATLANTIC CITY  LGT RAIN  54  52  93 NE10      30.14S
WRIGHTSTOWN    CLOUDY    52  50  93 NE7       30.15S
TOMS RIVER     CLOUDY   N/A N/A N/A E7        30.16S
BELMAR         CLOUDY    52  46  82 E10       30.17R
$$

PAZ047>061-062-071-030700-
EASTERN PENNSYLVANIA

CITY           SKY/WX    TMP DP  RH WIND       PRES   REMARKS
PHILADELPHIA   CLOUDY    55  52  89 NE8       30.18R
ALLENTOWN      CLOUDY    55  52  89 NE5       30.17S
SCRANTON       PTCLDY    52  48  86 E5        30.17F
$$

CTZ002-004>006-009-010-012-RIZ004-006-007-MAZ004-011-015-030700-
SOUTHERN NEW ENGLAND
 IN CT

CITY           SKY/WX    TMP DP  RH WIND       PRES   REMARKS
BRADLEY INTL   CLOUDY    49  46  90 CALM      30.18F
HARTFORD       CLOUDY    48  46  93 CALM      30.19S
DANBURY        CLOUDY    50  46  86 CALM      30.20R
WTRBRY/OXFORD  CLOUDY    48  43  81 CALM      30.20S
BRIDGEPORT     CLOUDY   N/A N/A N/A MISG      30.19S
MERIDEN        CLOUDY    49  46  90 CALM      30.20R
NEW HAVEN      CLOUDY    50  47  89 CALM      30.19S
CHESTER        FAIR      46  46 100 CALM      30.19S
GROTON         CLOUDY    49  45  86 NE3       30.19R
WILLIMANTIC    CLOUDY    48  45  89 N3        30.19S

 IN RI

CITY           SKY/WX    TMP DP  RH WIND       PRES   REMARKS
PROVIDENCE     CLOUDY    48  43  82 NE10      30.19S
BLOCK ISLAND   CLOUDY    48  43  81 NE8       30.18S
WESTERLY       CLOUDY    49  46  90 N3        30.19S

 IN MA

CITY           SKY/WX    TMP DP  RH WIND       PRES   REMARKS
BOSTON         CLOUDY    47  44  90 N5        30.20F
WORCESTER      CLOUDY    46  43  89 N3        30.18S
WESTFIELD      CLOUDY    48  45  89 CALM      30.19S
PROVINCETOWN   CLOUDY    48  43  81 N12       30.18F
NANTUCKET      CLOUDY    51  45  79 N15       30.15S
$$

ANZ330-335-338-340-345-350-353-355-030700-
COASTAL MARINE OBSERVATIONS


STATION/POSITION TIME  SKY/WX   TEMP    WIND        PRES    VSBY  WAVE
                                AIR SEA DIR/SP/G                  HT/PER
                 (UTC)          (F)     (DEG/KT/KT) (MB)    (MI)  (FT/S)
NY HARB ENTRANCE 0550            53 56   70/ 14/ 16 1021.0          3/ 6
4S FIRE IS       0503               54                N/A           3/ 8
20S FIRE ISLAND  0550            52 56   60/ 14/ 16 1021.6          4/ 6
GREAT SOUTH BAY  0530            53 64   50/ 10/ 14   N/A
23SW MTP         0550            51 56   50/ 14/ 17 1021.3          5/ 6
HUDSON CANYON    NOT AVBL
KINGS POINT      0500            53 56   CALM  /  1 1021.5
CENTRAL LI SOUND 0500            51 56   60/ 12/ 14   N/A
EASTERN LI SOUND 0500            50      20/  6/  8   N/A
ROBBINS REEF     0500            54      70/ 11/ 13 1020.8
$$


>>>>>>>>>>>>>>>>>>>>>>>>>>>> KEY <<<<<<<<<<<<<<<<<<<<<<<<<<<
>                                                          <
>     SKY/WX - SKY CONDITION/PRESENT WEATHER               <
>     TMP    - TEMPERATURE IN FAHRENHEIT                   <
>     DP     - DEWPOINT IN FAHRENHEIT                      <
>     RH     - RELATIVE HUMIDITY IN PERCENT                <
>     WIND   - DIRECTION AND SPEED IN MPH                  <
>     PRES   - MEAN SEA LEVEL PRESSURE IN INCHES OF HG     <
>     WCI    - WIND CHILL INDEX                            <
>     VSB    - VISIBILITY IN MILES                         <
>     HX     - HEAT INDEX                                  <
>     TC     - TEMPERATURE IN CELSIUS                      <
>     VRB    - VARIABLE WIND DIRECTION                     <
>                                                          <
>>>>>>>>>>>>>>>>>>>>>>>>>>>> KEY <<<<<<<<<<<<<<<<<<<<<<<<<<<





USA.gov is the U.S. government's official web portal to all federal, state and local government web resources and services.